M I D A S
Marine Information and Data Acquisition System
Tripno 1522 of the Zeeleeuw from 2008-07-18 07:56:38 to 2008-07-18 15:00:26
Back to CruiseResearch ActivitiesStationsMapUnderway DataData graphs

EquipmentUnitsComments
TimeDGPSUTC
LatitudeDGPSDM.mWGS84
LongitudeDGPSDM.mWGS84
SpeedMeteo Stationm/sRelative wind speed
DirectionMeteo StationdegRelative wind direction
TemperatureMeteo Stationdeg CelciusAir temperature
PressureMeteo StationPaAtmospheric pressure
HumidityMeteo Station%Relative humidity
Missing or incorrect values are displayed as -999
Metereological data collected by the RV Zeeleeuw from 2008-07-18 08:00:17 to 2008-07-18 15:03:24
Time Latitude Longitude Speed Direction Temperature Pressure Humidity
2008-07-18 08:01 51°13.633 2°56.011 4.7 38 16.2 101100 85
2008-07-18 08:02 51°13.644 2°55.958 3.7 33 16.2 101110 84
2008-07-18 08:03 51°13.657 2°55.912 1.8 22 16.2 101100 84
2008-07-18 08:04 51°13.681 2°55.831 5.8 34 16.3 101100 84
2008-07-18 08:05 51°13.697 2°55.764 4 35 16.2 101110 84
2008-07-18 08:06 51°13.71 2°55.775 2.6 30 16.2 101110 84
2008-07-18 08:07 51°13.71 2°55.779 3.1 28 16.3 101110 84
2008-07-18 08:08 51°13.715 2°55.772 2.3 267 16.3 101110 84
2008-07-18 08:09 51°13.767 2°55.698 2.9 22 16.4 101110 84
2008-07-18 08:10 51°13.851 2°55.607 3 26 16.4 101110 84
2008-07-18 08:11 51°13.952 2°55.53 1.8 327 16.4 101110 84
2008-07-18 08:12 51°14.054 2°55.454 2.3 24 16.4 101110 84
2008-07-18 08:13 51°14.166 2°55.364 3.1 324 16.4 101110 84
2008-07-18 08:14 51°14.28 2°55.212 5.8 28 16.5 101110 84
2008-07-18 08:15 51°14.389 2°55.01 8.7 22 16.5 101100 84
2008-07-18 08:16 51°14.513 2°54.822 6.7 20 16.4 101100 84
2008-07-18 08:17 51°14.691 2°54.746 7.1 247 16.4 101100 84
2008-07-18 08:18 51°14.881 2°54.678 7.4 251 16.4 101110 84
2008-07-18 08:19 51°15.072 2°54.621 5.7 252 16.4 101100 84
2008-07-18 08:20 51°15.263 2°54.579 5.8 257 16.5 101110 84
2008-07-18 08:21 51°15.455 2°54.526 5.6 247 16.5 101100 84
2008-07-18 08:22 51°15.645 2°54.466 6.6 253 16.5 101110 84
2008-07-18 08:23 51°15.838 2°54.419 7.5 255 16.4 101110 84
2008-07-18 08:24 51°16.023 2°54.328 7.7 243 16.4 101100 84
2008-07-18 08:25 51°16.181 2°54.149 7.7 24 16.5 101080 84
2008-07-18 08:26 51°16.326 2°53.979 9.6 246 16.5 101090 84
2008-07-18 08:27 51°16.472 2°53.816 7.6 245 16.5 101090 84
2008-07-18 08:28 51°16.617 2°53.656 8.5 245 16.5 101090 84
2008-07-18 08:29 51°16.763 2°53.499 9.9 248 16.6 101080 84
2008-07-18 08:30 51°16.912 2°53.352 7.2 253 16.5 101090 84
2008-07-18 08:31 51°17.067 2°53.246 8.4 252 16.6 101090 84
2008-07-18 08:32 51°17.228 2°53.212 3.3 267 16.6 101100 84
2008-07-18 08:33 51°17.37 2°53.33 2.6 27 16.5 101110 83
2008-07-18 08:34 51°17.5 2°53.486 2.7 27 16.6 101110 84
2008-07-18 08:35 51°17.634 2°53.636 1.8 26 16.7 101100 84
2008-07-18 08:36 51°17.77 2°53.781 2.4 27 16.7 101100 84
2008-07-18 08:37 51°17.908 2°53.921 2.9 29 16.6 101100 83
2008-07-18 08:38 51°18.047 2°54.06 3.1 29 16.6 101100 88
2008-07-18 08:39 51°18.152 2°54.172 3.8 28 16.6 101100 89
2008-07-18 08:40 51°18.189 2°54.242 6.2 27 16.7 101100 89
2008-07-18 08:41 51°18.198 2°54.282 6.3 23 16.6 101100 88
2008-07-18 08:42 51°18.196 2°54.291 6.6 23 16.6 101100 89
2008-07-18 08:43 51°18.194 2°54.293 7 27 16.5 101090 88
2008-07-18 08:44 51°18.195 2°54.293 8.8 23 16.5 101090 88
2008-07-18 08:45 51°18.198 2°54.289 9.1 27 16.5 101090 89
2008-07-18 08:46 51°18.206 2°54.276 6.3 261 16.5 101080 88
2008-07-18 08:47 51°18.214 2°54.255 11.8 259 16.5 101080 88
2008-07-18 08:48 51°18.223 2°54.23 10.8 258 16.5 101080 88
2008-07-18 08:49 51°18.233 2°54.2 8.5 259 16.7 101080 89
2008-07-18 08:50 51°18.243 2°54.17 8.1 254 16.7 101080 89
2008-07-18 08:51 51°18.256 2°54.136 10.7 253 16.8 101080 89
2008-07-18 08:52 51°18.275 2°54.101 11.4 258 16.7 101080 89
2008-07-18 08:53 51°18.298 2°54.066 7.6 262 16.7 101080 89
2008-07-18 08:54 51°18.322 2°54.03 9.5 260 16.8 101090 89
2008-07-18 08:55 51°18.345 2°53.989 10.7 256 16.8 101080 89
2008-07-18 08:56 51°18.372 2°53.958 6.1 261 16.8 101080 89
2008-07-18 08:57 51°18.4 2°53.931 6.8 262 16.8 101090 88
2008-07-18 08:58 51°18.429 2°53.903 8.7 260 16.8 101090 86
2008-07-18 08:59 51°18.459 2°53.875 7.8 260 16.9 101080 85
2008-07-18 09:00 51°18.486 2°53.847 8.9 254 16.8 101080 84
2008-07-18 09:01 51°18.515 2°53.819 6 257 16.9 101090 84
2008-07-18 09:02 51°18.544 2°53.792 9.3 261 17 101090 85
2008-07-18 09:03 51°18.574 2°53.765 8.2 255 16.9 101090 83
2008-07-18 09:04 51°18.603 2°53.739 9.7 256 17 101080 82
2008-07-18 09:05 51°18.637 2°53.76 6.7 21 16.9 101100 80
2008-07-18 09:06 51°18.638 2°53.786 6.6 22 16.7 101100 78
2008-07-18 09:07 51°18.63 2°53.789 7.3 27 16.7 101100 79
2008-07-18 09:08 51°18.617 2°53.766 6.4 24 16.6 101100 79
2008-07-18 09:09 51°18.61 2°53.764 6.4 23 16.5 101110 79
2008-07-18 09:10 51°18.608 2°53.78 5.8 28 16.6 101100 80
2008-07-18 09:11 51°18.61 2°53.795 8.2 29 16.5 101100 77
2008-07-18 09:12 51°18.612 2°53.804 8.5 30 16.6 101090 78
2008-07-18 09:13 51°18.611 2°53.808 9.1 269 16.6 101090 79
2008-07-18 09:14 51°18.607 2°53.808 7.2 267 16.7 101080 79
2008-07-18 09:15 51°18.603 2°53.808 8.8 263 16.7 101080 78
2008-07-18 09:16 51°18.6 2°53.807 11.3 259 16.8 101080 79
2008-07-18 09:17 51°18.601 2°53.802 9.3 258 16.8 101080 78
2008-07-18 09:18 51°18.601 2°53.799 12.9 257 16.9 101080 78
2008-07-18 09:19 51°18.601 2°53.796 12.1 260 16.9 101070 78
2008-07-18 09:20 51°18.601 2°53.796 10 260 16.9 101090 78
2008-07-18 09:21 51°18.601 2°53.795 8.7 258 16.9 101080 78
2008-07-18 09:22 51°18.601 2°53.795 8.1 260 16.9 101090 78
2008-07-18 09:23 51°18.601 2°53.793 10.9 256 17 101090 78
2008-07-18 09:24 51°18.601 2°53.793 9.9 254 17 101090 78
2008-07-18 09:25 51°18.602 2°53.791 5.6 261 17 101090 78
2008-07-18 09:26 51°18.603 2°53.789 10.5 260 17 101090 79
2008-07-18 09:27 51°18.603 2°53.79 8.2 260 17 101080 78
2008-07-18 09:28 51°18.603 2°53.79 11.6 258 17 101090 78
2008-07-18 09:29 51°18.602 2°53.792 9.4 257 17 101090 79
2008-07-18 09:30 51°18.601 2°53.794 11.6 254 17 101100 79
2008-07-18 09:31 51°18.6 2°53.798 15 258 17 101090 79
2008-07-18 09:32 51°18.6 2°53.802 10.5 254 17 101080 77
2008-07-18 09:33 51°18.601 2°53.804 10.2 255 17 101090 78
2008-07-18 09:34 51°18.601 2°53.808 14.9 256 17 101090 77
2008-07-18 09:35 51°18.602 2°53.81 9.8 254 16.9 101080 76
2008-07-18 09:36 51°18.603 2°53.812 11.7 255 17 101090 77
2008-07-18 09:37 51°18.604 2°53.815 13.2 256 16.9 101080 76
2008-07-18 09:38 51°18.605 2°53.819 11 254 16.9 101100 77
2008-07-18 09:39 51°18.606 2°53.82 10.1 259 17.1 101100 78
2008-07-18 09:40 51°18.607 2°53.822 10.3 253 17 101090 76
2008-07-18 09:41 51°18.61 2°53.826 10.9 256 16.9 101080 76
2008-07-18 09:42 51°18.612 2°53.827 15.6 253 16.9 101090 76
2008-07-18 09:43 51°18.613 2°53.83 9 251 16.9 101090 76
2008-07-18 09:44 51°18.615 2°53.831 13 251 17 101090 77
2008-07-18 09:45 51°18.617 2°53.832 14.3 251 17 101090 76
2008-07-18 09:46 51°18.618 2°53.835 11 246 17 101100 77
2008-07-18 09:47 51°18.619 2°53.836 11.3 25 17.1 101090 78
2008-07-18 09:48 51°18.62 2°53.841 7.6 248 17.1 101100 78
2008-07-18 09:49 51°18.62 2°53.846 8.5 22 17.2 101100 78
2008-07-18 09:50 51°18.62 2°53.849 12.5 23 17.1 101090 77
2008-07-18 09:51 51°18.623 2°53.851 10.8 242 17.1 101100 78
2008-07-18 09:52 51°18.626 2°53.853 13 23 17.1 101090 77
2008-07-18 09:53 51°18.628 2°53.854 12.7 26 17.1 101090 77
2008-07-18 09:54 51°18.63 2°53.856 11.3 25 17.1 101090 77
2008-07-18 09:55 51°18.632 2°53.86 12.9 22 17 101090 76
2008-07-18 09:56 51°18.634 2°53.86 10.2 28 17 101090 77
2008-07-18 09:57 51°18.636 2°53.861 9.9 30 17.1 101090 77
2008-07-18 09:58 51°18.639 2°53.86 13 26 17.1 101100 77
2008-07-18 09:59 51°18.641 2°53.861 11.3 26 16.9 101080 76
2008-07-18 10:00 51°18.643 2°53.86 13 25 17 101090 77
2008-07-18 10:01 51°18.646 2°53.86 13 24 16.9 101090 76
2008-07-18 10:02 51°18.649 2°53.867 9.7 26 16.9 101090 77
2008-07-18 10:03 51°18.649 2°53.88 13.7 24 17 101090 77
2008-07-18 10:04 51°18.648 2°53.885 12.5 25 17 101090 77
2008-07-18 10:05 51°18.649 2°53.884 12.3 27 16.9 101080 77
2008-07-18 10:06 51°18.651 2°53.883 13.2 20 16.9 101100 77
2008-07-18 10:07 51°18.653 2°53.882 9.6 27 16.8 101100 77
2008-07-18 10:08 51°18.655 2°53.881 10.1 315 16.9 101100 78
2008-07-18 10:09 51°18.654 2°53.883 11.9 321 17 101110 79
2008-07-18 10:10 51°18.654 2°53.883 11.5 324 16.9 101100 77
2008-07-18 10:11 51°18.652 2°53.885 10.8 329 16.9 101100 76
2008-07-18 10:12 51°18.651 2°53.884 11.5 320 16.9 101100 77
2008-07-18 10:13 51°18.651 2°53.884 10 321 16.9 101110 76
2008-07-18 10:14 51°18.651 2°53.885 11.2 318 16.9 101100 76
2008-07-18 10:15 51°18.651 2°53.885 10.5 319 16.9 101100 76
2008-07-18 10:16 51°18.651 2°53.886 10.1 323 16.9 101090 75
2008-07-18 10:17 51°18.65 2°53.886 11.2 328 16.9 101100 75
2008-07-18 10:18 51°18.648 2°53.887 9.8 328 16.9 101100 75
2008-07-18 10:19 51°18.647 2°53.886 11.4 323 17 101100 76
2008-07-18 10:20 51°18.648 2°53.886 11.4 315 17 101100 77
2008-07-18 10:21 51°18.65 2°53.885 10.5 316 17 101100 77
2008-07-18 10:22 51°18.651 2°53.886 8.6 320 16.9 101100 77
2008-07-18 10:23 51°18.652 2°53.884 7.3 321 17 101100 78
2008-07-18 10:24 51°18.652 2°53.885 11.4 320 17 101100 77
2008-07-18 10:25 51°18.652 2°53.886 10.1 319 17 101090 76
2008-07-18 10:26 51°18.652 2°53.884 11.9 322 16.9 101090 76
2008-07-18 10:27 51°18.652 2°53.885 10 320 16.9 101090 76
2008-07-18 10:28 51°18.652 2°53.884 9.5 322 17 101090 78
2008-07-18 10:29 51°18.652 2°53.885 9.6 325 17 101090 76
2008-07-18 10:30 51°18.651 2°53.886 10.1 329 17 101100 77
2008-07-18 10:31 51°18.65 2°53.885 8.8 320 17 101100 78
2008-07-18 10:32 51°18.65 2°53.886 7.5 323 17 101090 77
2008-07-18 10:33 51°18.649 2°53.886 10.9 328 17 101090 78
2008-07-18 10:34 51°18.649 2°53.887 9.1 328 17 101090 77
2008-07-18 10:35 51°18.65 2°53.887 8.7 319 17 101090 77
2008-07-18 10:36 51°18.649 2°53.886 11.8 328 17.1 101090 78
2008-07-18 10:37 51°18.648 2°53.887 9.8 330 17 101090 77
2008-07-18 10:38 51°18.647 2°53.888 8.9 331 17 101090 77
2008-07-18 10:39 51°18.646 2°53.888 10.9 327 17 101090 77
2008-07-18 10:40 51°18.645 2°53.888 9.4 326 17 101090 77
2008-07-18 10:41 51°18.647 2°53.886 8.7 319 17 101090 77
2008-07-18 10:42 51°18.649 2°53.887 11.6 325 17 101090 77
2008-07-18 10:43 51°18.649 2°53.888 9 328 17.1 101090 78
2008-07-18 10:44 51°18.647 2°53.887 9.3 329 17.1 101100 77
2008-07-18 10:45 51°18.645 2°53.888 11.7 331 17.1 101090 77
2008-07-18 10:46 51°18.645 2°53.888 11 326 17.1 101090 76
2008-07-18 10:47 51°18.647 2°53.887 12.2 329 17.1 101080 75
2008-07-18 10:48 51°18.648 2°53.888 8.7 326 17.1 101080 75
2008-07-18 10:49 51°18.649 2°53.888 10.9 329 17.2 101090 76
2008-07-18 10:50 51°18.648 2°53.888 10.8 335 17.1 101090 75
2008-07-18 10:51 51°18.644 2°53.888 10.7 337 17.2 101090 77
2008-07-18 10:52 51°18.643 2°53.888 9.2 328 17.1 101100 77
2008-07-18 10:53 51°18.646 2°53.887 9.2 322 17.1 101090 77
2008-07-18 10:54 51°18.651 2°53.886 11.5 322 17.1 101090 78
2008-07-18 10:55 51°18.651 2°53.886 9.7 326 17.2 101090 79
2008-07-18 10:56 51°18.649 2°53.888 11.2 334 17.2 101090 78
2008-07-18 10:57 51°18.645 2°53.888 9.8 331 17.1 101080 77
2008-07-18 10:58 51°18.647 2°53.888 10.7 326 17.1 101090 78
2008-07-18 10:59 51°18.648 2°53.887 9.7 327 17.1 101090 78
2008-07-18 11:00 51°18.649 2°53.887 10.3 329 17.1 101090 78
2008-07-18 11:01 51°18.648 2°53.888 10.1 332 17.1 101080 78
2008-07-18 11:02 51°18.647 2°53.886 11.2 329 17.1 101090 79
2008-07-18 11:03 51°18.647 2°53.888 9.9 331 17 101080 79
2008-07-18 11:04 51°18.649 2°53.888 12.6 327 17.1 101090 80
2008-07-18 11:05 51°18.651 2°53.886 10.5 327 17 101080 79
2008-07-18 11:06 51°18.65 2°53.888 10.6 335 17.1 101080 80
2008-07-18 11:07 51°18.646 2°53.888 9 340 17.1 101080 79
2008-07-18 11:08 51°18.644 2°53.889 11.2 330 17.1 101080 80
2008-07-18 11:09 51°18.648 2°53.887 8.3 322 17.1 101090 80
2008-07-18 11:10 51°18.653 2°53.886 9.8 324 17.1 101080 80
2008-07-18 11:11 51°18.652 2°53.886 11.5 332 17.2 101080 81
2008-07-18 11:12 51°18.649 2°53.887 11.1 333 17 101080 78
2008-07-18 11:13 51°18.648 2°53.889 8.5 329 17 101080 78
2008-07-18 11:14 51°18.649 2°53.886 10.6 326 17.1 101080 79
2008-07-18 11:15 51°18.651 2°53.886 11.3 328 17.2 101080 80
2008-07-18 11:16 51°18.651 2°53.886 9.1 328 17.2 101080 80
2008-07-18 11:17 51°18.65 2°53.889 9.9 334 17.2 101070 80
2008-07-18 11:18 51°18.647 2°53.889 9.3 330 17.2 101080 79
2008-07-18 11:19 51°18.649 2°53.888 11.9 322 17.1 101080 78
2008-07-18 11:20 51°18.654 2°53.885 8.5 325 17.1 101070 78
2008-07-18 11:21 51°18.655 2°53.885 9.5 332 17.3 101080 79
2008-07-18 11:22 51°18.651 2°53.886 9.5 333 17.3 101080 79
2008-07-18 11:23 51°18.651 2°53.888 10.2 327 17.2 101070 79
2008-07-18 11:24 51°18.655 2°53.884 9.2 324 17.2 101080 78
2008-07-18 11:25 51°18.657 2°53.884 11 333 17.2 101080 79
2008-07-18 11:26 51°18.653 2°53.887 11.1 336 17.2 101080 79
2008-07-18 11:27 51°18.651 2°53.888 10 329 17.1 101070 79
2008-07-18 11:28 51°18.652 2°53.886 10.3 328 17.1 101080 79
2008-07-18 11:29 51°18.656 2°53.884 10.2 330 17.1 101090 78
2008-07-18 11:30 51°18.656 2°53.884 10.6 335 17.1 101080 78
2008-07-18 11:31 51°18.651 2°53.888 11.2 338 17.1 101070 78
2008-07-18 11:32 51°18.647 2°53.889 9.8 335 17.1 101080 78
2008-07-18 11:33 51°18.649 2°53.887 9.5 323 17.2 101080 79
2008-07-18 11:34 51°18.655 2°53.884 10.6 327 17.1 101080 79
2008-07-18 11:35 51°18.657 2°53.883 11.1 332 17.2 101080 79
2008-07-18 11:36 51°18.654 2°53.886 10.2 337 17.1 101080 79
2008-07-18 11:37 51°18.651 2°53.887 11.2 331 17 101080 79
2008-07-18 11:38 51°18.653 2°53.887 9 327 17 101080 79
2008-07-18 11:39 51°18.656 2°53.884 11.6 328 17.1 101090 80
2008-07-18 11:40 51°18.655 2°53.886 9.6 337 17.1 101090 80
2008-07-18 11:41 51°18.649 2°53.888 10.6 341 17 101080 80
2008-07-18 11:42 51°18.649 2°53.888 9.3 330 17.2 101090 82
2008-07-18 11:43 51°18.654 2°53.885 10.5 323 17.2 101080 80
2008-07-18 11:44 51°18.657 2°53.883 9.1 328 17.2 101080 81
2008-07-18 11:45 51°18.655 2°53.886 9.3 331 17.2 101080 80
2008-07-18 11:46 51°18.65 2°53.888 9.5 337 17.1 101080 79
2008-07-18 11:47 51°18.65 2°53.888 10.4 327 17.1 101080 80
2008-07-18 11:48 51°18.654 2°53.885 10.6 331 17.2 101080 80
2008-07-18 11:49 51°18.656 2°53.885 11.3 334 17 101080 78
2008-07-18 11:50 51°18.653 2°53.887 9.8 336 17.1 101070 78
2008-07-18 11:51 51°18.652 2°53.887 9.7 330 17.2 101090 78
2008-07-18 11:52 51°18.655 2°53.885 9 328 17.2 101080 78
2008-07-18 11:53 51°18.659 2°53.883 9.9 333 17.2 101070 79
2008-07-18 11:54 51°18.657 2°53.885 8.5 334 17.3 101090 80
2008-07-18 11:55 51°18.652 2°53.887 9.6 335 17.3 101080 80
2008-07-18 11:56 51°18.651 2°53.887 11 332 17.3 101070 81
2008-07-18 11:57 51°18.654 2°53.885 9.6 328 17.2 101080 80
2008-07-18 11:58 51°18.657 2°53.882 10.2 330 17.2 101080 80
2008-07-18 11:59 51°18.657 2°53.884 10.3 334 17.1 101090 80
2008-07-18 12:00 51°18.653 2°53.886 8.5 335 17.2 101070 81
2008-07-18 12:01 51°18.655 2°53.885 7.7 328 17.3 101080 82
2008-07-18 12:02 51°18.658 2°53.882 8.3 330 17.3 101080 82
2008-07-18 12:03 51°18.656 2°53.884 10 336 17.2 101080 81
2008-07-18 12:04 51°18.653 2°53.886 10.7 337 17.2 101070 82
2008-07-18 12:05 51°18.652 2°53.886 9.1 331 17.2 101080 82
2008-07-18 12:06 51°18.656 2°53.884 9.6 327 17.2 101070 81
2008-07-18 12:07 51°18.661 2°53.881 11 329 17.1 101080 80
2008-07-18 12:08 51°18.658 2°53.883 11.8 339 17.1 101070 80
2008-07-18 12:09 51°18.655 2°53.884 10.7 334 17 101060 79
2008-07-18 12:10 51°18.655 2°53.885 11.9 334 17.1 101070 81
2008-07-18 12:11 51°18.657 2°53.883 11.5 334 17.1 101080 80
2008-07-18 12:12 51°18.657 2°53.883 9.9 334 17 101080 80
2008-07-18 12:13 51°18.658 2°53.884 12.2 332 17.1 101070 81
2008-07-18 12:14 51°18.658 2°53.884 10.8 335 17 101080 79
2008-07-18 12:15 51°18.657 2°53.885 12.6 336 17 101070 79
2008-07-18 12:16 51°18.659 2°53.883 11.2 334 17 101070 79
2008-07-18 12:17 51°18.657 2°53.883 10.6 336 17 101070 80
2008-07-18 12:18 51°18.658 2°53.884 11 333 17 101070 80
2008-07-18 12:19 51°18.659 2°53.883 10.8 334 17 101070 80
2008-07-18 12:20 51°18.659 2°53.883 12.4 337 17 101070 79
2008-07-18 12:21 51°18.658 2°53.885 12 337 17 101070 79
2008-07-18 12:22 51°18.656 2°53.885 11.4 338 17 101070 80
2008-07-18 12:23 51°18.654 2°53.885 10.3 335 17 101070 80
2008-07-18 12:24 51°18.656 2°53.884 9.9 333 17 101080 81
2008-07-18 12:25 51°18.658 2°53.884 9.4 339 17 101070 80
2008-07-18 12:26 51°18.658 2°53.883 10.2 335 16.9 101070 80
2008-07-18 12:27 51°18.657 2°53.884 11.7 342 17 101070 82
2008-07-18 12:28 51°18.655 2°53.884 11.1 338 17 101080 82
2008-07-18 12:29 51°18.656 2°53.884 9.6 336 16.9 101070 81
2008-07-18 12:30 51°18.658 2°53.884 9.7 336 16.9 101080 80
2008-07-18 12:31 51°18.658 2°53.882 10.4 337 16.9 101070 81
2008-07-18 12:32 51°18.658 2°53.883 10.1 341 16.9 101070 81
2008-07-18 12:33 51°18.657 2°53.884 10.7 338 16.9 101070 81
2008-07-18 12:34 51°18.655 2°53.885 10.1 335 16.9 101070 81
2008-07-18 12:35 51°18.656 2°53.885 9.9 339 16.9 101070 81
2008-07-18 12:36 51°18.657 2°53.884 9.2 337 17 101070 81
2008-07-18 12:37 51°18.657 2°53.882 10 338 17 101070 82
2008-07-18 12:38 51°18.658 2°53.883 10.8 334 17 101070 81
2008-07-18 12:39 51°18.659 2°53.883 9.1 338 17 101070 80
2008-07-18 12:40 51°18.659 2°53.883 9.6 336 17 101070 80
2008-07-18 12:41 51°18.658 2°53.882 8.8 343 17.1 101070 81
2008-07-18 12:42 51°18.658 2°53.882 9.1 334 17.2 101070 81
2008-07-18 12:43 51°18.66 2°53.883 9.8 338 17.2 101080 80
2008-07-18 12:44 51°18.66 2°53.883 9.6 340 17.1 101070 81
2008-07-18 12:45 51°18.659 2°53.883 9.2 339 17.1 101070 81
2008-07-18 12:46 51°18.657 2°53.884 10.5 340 17.1 101060 81
2008-07-18 12:47 51°18.658 2°53.884 8.8 335 17.2 101070 81
2008-07-18 12:48 51°18.659 2°53.883 8.8 335 17.2 101070 81
2008-07-18 12:49 51°18.662 2°53.879 9.7 334 17.2 101070 80
2008-07-18 12:50 51°18.661 2°53.88 10 339 17.2 101070 80
2008-07-18 12:51 51°18.659 2°53.884 10.9 342 17.2 101070 81
2008-07-18 12:52 51°18.657 2°53.885 10.9 336 17.2 101050 81
2008-07-18 12:53 51°18.657 2°53.884 9.7 340 17.2 101060 80
2008-07-18 12:54 51°18.659 2°53.883 10.4 337 17.2 101060 80
2008-07-18 12:55 51°18.658 2°53.883 10.2 340 17.1 101060 79
2008-07-18 12:56 51°18.658 2°53.884 12.7 339 17.2 101060 79
2008-07-18 12:57 51°18.657 2°53.885 11.2 335 17.1 101050 77
2008-07-18 12:58 51°18.657 2°53.885 10.3 336 17.1 101050 76
2008-07-18 12:59 51°18.658 2°53.885 9.8 335 17.2 101050 76
2008-07-18 13:00 51°18.66 2°53.883 10.9 333 17.2 101060 75
2008-07-18 13:01 51°18.661 2°53.883 10.8 334 17.1 101060 73
2008-07-18 13:02 51°18.66 2°53.882 10.5 340 17.3 101060 75
2008-07-18 13:03 51°18.659 2°53.883 11.9 342 17.3 101050 76
2008-07-18 13:04 51°18.658 2°53.885 11.7 338 17.2 101050 76
2008-07-18 13:05 51°18.658 2°53.886 10.8 336 17.3 101060 78
2008-07-18 13:06 51°18.658 2°53.882 11.4 339 17.2 101050 78
2008-07-18 13:07 51°18.659 2°53.884 12.6 340 17.3 101040 79
2008-07-18 13:08 51°18.658 2°53.885 10.5 341 17.2 101050 79
2008-07-18 13:09 51°18.658 2°53.887 11.8 340 17.2 101050 80
2008-07-18 13:10 51°18.657 2°53.886 11.9 335 17.2 101060 81
2008-07-18 13:11 51°18.659 2°53.885 11.7 336 17.1 101060 80
2008-07-18 13:12 51°18.66 2°53.882 11 337 17.1 101050 81
2008-07-18 13:13 51°18.66 2°53.883 11.1 341 17.1 101040 81
2008-07-18 13:14 51°18.659 2°53.885 12.4 345 17.1 101030 81
2008-07-18 13:15 51°18.656 2°53.886 12.1 341 17 101040 81
2008-07-18 13:16 51°18.657 2°53.887 10.4 341 17 101060 82
2008-07-18 13:17 51°18.657 2°53.886 10.4 341 17 101050 82
2008-07-18 13:18 51°18.658 2°53.884 10.9 336 17 101050 82
2008-07-18 13:19 51°18.658 2°53.884 10.6 340 17 101040 81
2008-07-18 13:20 51°18.657 2°53.885 10.7 341 17.1 101050 81
2008-07-18 13:21 51°18.655 2°53.887 11.5 342 17 101040 80
2008-07-18 13:22 51°18.653 2°53.888 8.9 339 17 101050 80
2008-07-18 13:23 51°18.655 2°53.886 11 338 17 101060 80
2008-07-18 13:24 51°18.657 2°53.887 10.6 338 17.1 101070 81
2008-07-18 13:25 51°18.657 2°53.886 10.7 342 17.1 101060 82
2008-07-18 13:26 51°18.657 2°53.886 9.6 337 17.1 101060 82
2008-07-18 13:27 51°18.657 2°53.885 11.2 337 17.1 101060 82
2008-07-18 13:28 51°18.66 2°53.884 9.4 337 17 101060 81
2008-07-18 13:29 51°18.66 2°53.884 10.5 340 17.1 101050 80
2008-07-18 13:30 51°18.659 2°53.885 11.5 342 17.1 101050 80
2008-07-18 13:31 51°18.659 2°53.883 11.2 339 17 101060 80
2008-07-18 13:32 51°18.661 2°53.883 10.3 336 17.1 101060 80
2008-07-18 13:33 51°18.66 2°53.883 9.7 338 17.1 101060 80
2008-07-18 13:34 51°18.661 2°53.883 8.7 333 17.1 101050 80
2008-07-18 13:35 51°18.661 2°53.882 9.7 335 17.1 101060 81
2008-07-18 13:36 51°18.661 2°53.882 11.3 337 17.1 101060 81
2008-07-18 13:37 51°18.661 2°53.883 10.6 338 17.1 101060 81
2008-07-18 13:38 51°18.663 2°53.882 9.3 336 17.1 101050 81
2008-07-18 13:39 51°18.663 2°53.882 10.5 339 17.1 101060 82
2008-07-18 13:40 51°18.661 2°53.883 9.2 338 17.2 101050 85
2008-07-18 13:41 51°18.66 2°53.884 10 341 17.2 101060 85
2008-07-18 13:42 51°18.657 2°53.885 9.5 340 17.1 101060 84
2008-07-18 13:43 51°18.658 2°53.884 10.3 336 17.1 101060 85
2008-07-18 13:44 51°18.66 2°53.885 11 336 17.1 101060 84
2008-07-18 13:45 51°18.662 2°53.883 9.2 336 17.1 101060 84
2008-07-18 13:46 51°18.662 2°53.879 10.1 334 17.1 101060 85
2008-07-18 13:47 51°18.665 2°53.88 9.4 337 17.1 101060 84
2008-07-18 13:48 51°18.664 2°53.881 8.8 341 17.1 101050 83
2008-07-18 13:49 51°18.662 2°53.883 8.7 341 17.2 101070 85
2008-07-18 13:50 51°18.661 2°53.881 9.3 337 17.1 101060 84
2008-07-18 13:51 51°18.661 2°53.882 10.2 336 17.1 101060 84
2008-07-18 13:52 51°18.662 2°53.883 9.6 338 17.1 101060 84
2008-07-18 13:53 51°18.662 2°53.882 10.5 338 17.1 101070 85
2008-07-18 13:54 51°18.661 2°53.882 9 340 17.1 101060 84
2008-07-18 13:55 51°18.66 2°53.882 9.5 339 17.1 101060 85
2008-07-18 13:56 51°18.66 2°53.883 9.1 341 17.1 101060 85
2008-07-18 13:57 51°18.66 2°53.883 8.6 335 17.1 101060 85
2008-07-18 13:58 51°18.662 2°53.882 10.9 336 17.1 101060 85
2008-07-18 13:59 51°18.664 2°53.878 8.6 336 17.1 101060 85
2008-07-18 14:00 51°18.666 2°53.878 9.7 337 17.1 101050 85
2008-07-18 14:01 51°18.664 2°53.88 9.2 340 17.1 101060 86
2008-07-18 14:02 51°18.661 2°53.881 8.5 344 17.1 101050 86
2008-07-18 14:03 51°18.66 2°53.883 9.3 339 17.1 101050 85
2008-07-18 14:04 51°18.662 2°53.882 8.6 337 17.1 101060 86
2008-07-18 14:05 51°18.662 2°53.88 8.6 335 17.1 101050 85
2008-07-18 14:06 51°18.663 2°53.881 9.2 338 17.1 101050 84
2008-07-18 14:07 51°18.662 2°53.882 8.2 340 17.2 101060 84
2008-07-18 14:08 51°18.662 2°53.88 8.7 340 17.2 101050 83
2008-07-18 14:09 51°18.663 2°53.881 8.9 339 17.2 101060 84
2008-07-18 14:10 51°18.662 2°53.881 9.3 339 17.3 101060 84
2008-07-18 14:11 51°18.661 2°53.883 9.5 339 17.3 101060 83
2008-07-18 14:12 51°18.66 2°53.883 8.7 338 17.3 101060 83
2008-07-18 14:13 51°18.661 2°53.885 8.3 336 17.3 101060 83
2008-07-18 14:14 51°18.662 2°53.882 8.1 336 17.3 101060 83
2008-07-18 14:15 51°18.662 2°53.882 8.8 339 17.3 101060 83
2008-07-18 14:16 51°18.662 2°53.883 9 337 17.3 101060 84
2008-07-18 14:17 51°18.663 2°53.882 10.2 336 17.3 101060 83
2008-07-18 14:18 51°18.662 2°53.882 8 341 17.3 101060 84
2008-07-18 14:19 51°18.662 2°53.883 7.3 340 17.4 101060 84
2008-07-18 14:20 51°18.66 2°53.883 9.7 341 17.4 101060 83
2008-07-18 14:21 51°18.661 2°53.884 8.8 338 17.4 101050 82
2008-07-18 14:22 51°18.661 2°53.883 7.4 340 17.4 101060 83
2008-07-18 14:23 51°18.662 2°53.885 9.6 341 17.4 101060 83
2008-07-18 14:24 51°18.661 2°53.878 9.2 335 17.4 101060 83
2008-07-18 14:25 51°18.66 2°53.863 8.9 333 17.4 101060 83
2008-07-18 14:26 51°18.658 2°53.853 8.3 340 17.4 101060 84
2008-07-18 14:27 51°18.653 2°53.849 9.1 340 17.4 101060 84
2008-07-18 14:28 51°18.649 2°53.846 9.9 339 17.3 101050 83
2008-07-18 14:29 51°18.644 2°53.834 9.1 336 17.4 101060 84
2008-07-18 14:30 51°18.645 2°53.832 9.7 335 17.4 101060 84
2008-07-18 14:31 51°18.644 2°53.811 10.5 331 17.4 101060 83
2008-07-18 14:32 51°18.639 2°53.803 8.9 343 17.3 101060 83
2008-07-18 14:33 51°18.627 2°53.802 8.4 344 17.3 101060 84
2008-07-18 14:34 51°18.592 2°53.795 10.4 356 17.4 101060 86
2008-07-18 14:35 51°18.541 2°53.794 9.7 351 17.3 101060 86
2008-07-18 14:36 51°18.476 2°53.759 12.3 346 17.3 101040 85
2008-07-18 14:37 51°18.342 2°53.671 13.5 345 17.2 101040 85
2008-07-18 14:38 51°18.179 2°53.573 12.3 347 17.2 101040 85
2008-07-18 14:39 51°18.006 2°53.488 12.7 346 17.3 101040 86
2008-07-18 14:40 51°17.829 2°53.422 13.5 349 17.3 101040 84
2008-07-18 14:41 51°17.65 2°53.367 11.9 347 17.3 101040 84
2008-07-18 14:42 51°17.471 2°53.314 13.5 351 17.3 101050 84
2008-07-18 14:43 51°17.291 2°53.258 13.4 349 17.4 101040 84
2008-07-18 14:44 51°17.111 2°53.212 13.5 349 17.4 101040 83
2008-07-18 14:45 51°16.929 2°53.194 12.7 352 17.4 101040 82
2008-07-18 14:46 51°16.743 2°53.196 13.3 353 17.5 101040 81
2008-07-18 14:47 51°16.555 2°53.217 13.4 354 17.5 101040 81
2008-07-18 14:48 51°16.367 2°53.231 13 352 17.6 101040 80
2008-07-18 14:49 51°16.179 2°53.275 11.5 -999 17.6 101050 80
2008-07-18 14:50 51°15.998 2°53.379 10.9 357 17.6 101050 80
2008-07-18 14:51 51°15.815 2°53.48 10.6 359 17.6 101050 80
2008-07-18 14:52 51°15.633 2°53.576 11.6 357 17.6 101060 80
2008-07-18 14:53 51°15.45 2°53.685 11.5 358 17.6 101050 79
2008-07-18 14:54 51°15.267 2°53.79 10.8 2 17.7 101060 80
2008-07-18 14:55 51°15.092 2°53.927 9.9 3 17.7 101060 80
2008-07-18 14:56 51°14.925 2°54.092 9.4 5 17.7 101070 80
2008-07-18 14:57 51°14.771 2°54.287 7.6 6 17.7 101070 79
2008-07-18 14:58 51°14.617 2°54.487 9.7 8 17.7 101070 79
2008-07-18 14:59 51°14.5 2°54.75 7.6 11 17.8 101080 81
2008-07-18 15:00 51°14.388 2°55.018 7.9 10 17.8 101080 81
2008-07-18 15:01 51°14.273 2°55.233 7 16 17.8 101090 80
2008-07-18 15:02 51°14.178 2°55.363 5.3 1 17.9 101090 81
2008-07-18 15:03 51°14.085 2°55.442 4.7 6 17.9 101090 78